#timestamp,LO_Frequency,Hit,StdDev 
1558792815.4,286047001.9,N
1558792835.2,286047003.6,N
1558792855.1,286047003.2,N
1558792856.0,286047003.2,N
1558792875.8,286047005.8,Y
1558792895.7,286046998.1,P
1558792915.5,286047000.8,N
1558792935.3,286046997.1,N
1558792955.2,286046990.3,Y
1558792975.0,286046987.0,P
1558792975.9,286046987.0,N
1558792995.7,286046989.4,N
1558793015.6,286046991.4,N
1558793035.4,286046986.9,N
1558793055.3,286046986.0,Y
1558793075.1,286046994.9,P
1558793095.8,286047001.0,N
1558793115.7,286046999.7,N
1558793135.5,286047006.0,N
1558793155.4,286047003.7,N
1558793175.2,286047006.8,N
1558793195.0,286047007.4,N
1558793195.9,286047007.4,N
1558793215.8,286047007.6,N
1558793235.6,286047006.2,N
1558793255.5,286047008.1,N
1558793275.3,286047012.3,N
1558793295.1,286047012.3,N
1558793315.9,286047012.2,N
1558793335.7,286047011.9,N
1558793355.5,286047013.2,N
1558793375.4,286047015.1,N
1558793395.2,286047013.7,N
1558793415.1,286047014.0,N
1558793416.0,286047014.0,N
1558793435.8,286047012.6,N
1558793455.6,286047014.3,N
1558793475.5,286047011.5,N
1558793495.3,286047013.8,N
1558793515.1,286047014.4,N
1558793535.9,286047015.6,N
1558793555.7,286047010.2,N
1558793575.6,286047012.0,N
1558793595.4,286047011.1,N
1558793615.2,286047011.0,N
1558793635.1,286047014.8,Y
1558793636.0,286047014.8,P
1558793655.8,286047007.2,N
1558793675.7,286047007.0,N
1558793695.5,286047006.2,N
1558793715.3,286047007.0,N
1558793735.2,286047008.4,N
1558793755.0,286047007.7,N
1558793755.9,286047007.7,N
1558793775.8,286047010.0,Y
1558793795.6,286047000.3,P
1558793815.4,286047000.7,N
1558793835.3,286046997.3,N
1558793855.1,286046997.5,N
1558793875.8,286046997.3,N
1558793895.7,286046998.2,N
1558793915.5,286046997.1,N
1558793935.4,286046999.1,N
1558793955.2,286046996.6,N
1558793975.0,286046997.7,N
1558793975.9,286046997.7,N
1558793995.8,286046992.2,N
1558794015.6,286046991.1,N
1558794035.5,286046985.0,Y
1558794055.3,286046985.2,P
1558794075.1,286046980.6,P
1558794095.9,286046981.2,N
1558794115.7,286046979.1,N
1558794135.5,286046981.7,N
1558794155.4,286046980.2,Y
1558794175.2,286046994.8,P
1558794195.1,286046993.3,N
1558794196.0,286046993.3,N
1558794215.8,286046996.0,N
1558794235.6,286046992.8,N
1558794255.5,286046989.0,N
1558794275.3,286046990.8,N
1558794295.2,286046984.6,Y
1558794315.9,286046986.9,P
1558794335.7,286046982.9,P
1558794355.6,286046981.4,P
1558794375.4,286046978.0,Y
1558794395.2,286046990.4,P
1558794415.1,286046988.6,P
1558794416.0,286046988.6,P
1558794435.8,286046990.9,Y
1558794455.7,286047008.5,P
1558794475.5,286047017.7,N
1558794495.3,286047022.6,N
1558794515.2,286047025.9,N
1558794535.0,286047029.0,N
1558794535.9,286047029.0,N
1558794555.8,286047024.1,N
1558794575.6,286047025.1,N
1558794595.4,286047019.4,N
1558794615.3,286047020.9,N
1558794635.1,286047026.8,N
1558794655.8,286047020.4,N
1558794675.7,286047017.7,N
1558794695.5,286047016.0,N
1558794715.4,286047023.6,N
1558794735.2,286047020.9,N
1558794755.0,286047019.4,N
1558794755.9,286047019.4,N
1558794775.8,286047016.2,N
1558794795.6,286047013.1,N
1558794815.5,286047008.3,N
1558794835.3,286047003.4,N
1558794855.1,286046998.3,N
1558794875.9,286046996.3,N
1558794895.7,286046993.9,N
1558794915.5,286046994.1,N
1558794935.4,286046997.8,N
1558794955.2,286046998.4,N
1558794975.1,286047006.3,N
1558794976.0,286047006.3,N
1558794995.8,286046999.8,N
1558795015.6,286047002.5,N
1558795035.5,286046998.5,N
1558795055.3,286046998.1,N
1558795075.1,286047002.3,N
1558795095.9,286047001.3,N
1558795115.7,286047009.3,N
1558795135.6,286047011.9,N
1558795155.4,286047017.0,N
1558795175.2,286047017.4,N
1558795195.1,286047018.9,N
1558795196.0,286047018.9,N
1558795215.8,286047024.7,N
1558795235.7,286047022.2,N
1558795255.5,286047030.1,Y
1558795275.4,286047022.4,P
1558795295.2,286047017.9,N
1558795315.0,286047019.1,P
1558795315.9,286047019.1,Y
1558795335.8,286047007.6,P
1558795355.6,286047010.6,N
1558795375.4,286047009.7,N
1558795395.3,286047012.4,Y
1558795415.1,286047000.4,P
1558795435.9,286046999.9,N
1558795455.7,286047002.7,N
1558795475.5,286047001.2,N
1558795495.4,286047001.9,N
1558795515.2,286047001.6,N
1558795535.1,286047002.7,N
1558795536.0,286047002.7,N
1558795555.8,286047002.3,N
1558795575.6,286046999.5,N
1558795595.5,286046993.8,N
1558795615.3,286046993.0,N
1558795635.1,286046989.1,N
1558795655.9,286046989.2,N
1558795675.7,286046985.9,N
1558795695.6,286046986.3,N
1558795715.4,286046984.1,N
1558795735.2,286046982.8,N
1558795755.1,286046984.4,N
1558795756.0,286046984.4,N
1558795775.8,286046985.9,N
1558795795.7,286046986.9,N
1558795815.5,286046986.9,N
1558795835.3,286046988.0,N
1558795855.2,286046982.2,N
1558795875.9,286046983.8,N
1558795895.7,286046985.1,N
1558795915.6,286046984.0,N
1558795935.4,286046986.3,N
1558795955.3,286046980.5,N
1558795975.1,286046982.0,N
1558795976.0,286046982.0,N
1558795995.8,286046976.4,Y
1558796015.7,286046979.8,P
1558796035.5,286046975.9,P
1558796055.3,286046972.7,P
1558796075.2,286046970.2,Y
1558796095.0,286046986.0,P
1558796095.9,286046986.0,P
1558796115.8,286046981.5,P
1558796135.6,286046989.9,Y
1558796155.4,286047008.5,P
1558796175.3,286047009.4,N
1558796195.1,286047014.9,N
1558796215.9,286047014.1,N
1558796235.7,286047014.7,N
1558796255.5,286047011.3,N
1558796275.4,286047006.7,N
1558796295.2,286047001.5,N
1558796315.0,286046999.8,N
1558796315.9,286046999.8,N
1558796335.8,286047000.4,N
1558796355.6,286046998.9,N
1558796375.5,286046995.9,N
1558796395.3,286046992.5,N
